Regional Weather Roundup
Issued by NWS New Orleans/Baton Rouge, LA

Home | Current Version | Previous Version | Text Only | Print | Product List | Glossary On
Versions: 1 2 3 4 5 6 7 8 9 10 11 12 13 14 15 16 17 18 19 20 21 22 23 24 25 26 27 28 29 30 31 32 33 34 35 36 37 38 39 40 41 42 43 44 45 46 47 48 49 50
000
ASUS44 KLIX 181812
RWRLIX
NEW ORLEANS REGIONAL WEATHER ROUNDUP
NATIONAL WEATHER SERVICE NEW ORLEANS LA
1200 PM CST SAT NOV 18 2017

NOTE: "FAIR" INDICATES FEW OR NO CLOUDS BELOW 12,000 FEET WITH NO
      SIGNIFICANT WEATHER AND/OR OBSTRUCTIONS TO VISIBILITY.
      SKY/WX - SKY CONDITION AND SIGNIFICANT WEATHER.
      TMP - AIR TEMPERATURE.     DP    - DEWPOINT TEMPERATURE.
      RH  - RELATIVE HUMIDITY.   PRES  - PRESSURE.
      HI  - HEAT INDEX.          WCI   - WIND CHILL INDEX.

*  THESE STATIONS ARE NOT NWS OR FAA STATIONS AND ARE NOT UNDER
   NWS QUALITY CONTROL.

LAZ038-040-048-061>063-065>067-069-181900-
SOUTHEAST LOUISIANA

CITY           SKY/WX    TMP DP  RH WIND       PRES   REMARKS
N.O. INTL ARPT PTSUNNY   83  65  54 SW14      29.88F
6HR MIN TEMP:  67; 6HR MAX TEMP:  83;

N.O. LAKEFRONT PTSUNNY   79  67  66 SW22      29.89F
6HR MIN TEMP:  67; 6HR MAX TEMP:  80;

N.O. DOWNTOWN*   N/A     79  67  66 S17G23    29.90F
6HR MIN TEMP:  68; 6HR MAX TEMP:  79;

RESERVE*         N/A     81  63  54 SW17G25   29.88F
6HR MIN TEMP:  67; 6HR MAX TEMP:  83;

SLIDELL        PTSUNNY   79  65  62 SW13G24   29.88F
6HR MIN TEMP:  66; 6HR MAX TEMP:  80;

BATON ROUGE    CLOUDY    79  64  60 S22G29    29.85F
6HR MIN TEMP:  66; 6HR MAX TEMP:  80;

BOOTHVILLE     SUNNY     80  69  69 S16G22    29.93F
6HR MIN TEMP:  71; 6HR MAX TEMP:  80;

BELLE CHASSE   NOT AVBL
BOGALUSA*      NOT AVBL
GALLIANO*      PTCLDY    81  65  59 SW16G25   29.91F
6HR MIN TEMP:  69; 6HR MAX TEMP:  81;

NEW ROADS*     MOCLDY    80  66  62 SW16G23   29.84F
6HR MIN TEMP:  64; 6HR MAX TEMP:  81;

GONZALES*      CLOUDY    80  65  61 SW16G24   29.87F
6HR MIN TEMP:  64; 6HR MAX TEMP:  80;

HAMMOND*       PTSUNNY   81  64  57 SW14G22   29.86F
HOUMA*         MOSUNNY   81  70  69 S14       29.89F
PORT FOURCHON* NOT AVBL

$$

MSZ070-080>082-181900-
SOUTHERN MISSISSIPPI

CITY           SKY/WX    TMP DP  RH WIND       PRES   REMARKS
MCCOMB         CLOUDY    77  65  66 SW8G18    29.84F
6HR MIN TEMP:  62; 6HR MAX TEMP:  77;

GULFPORT       MOSUNNY   78  66  66 S13G22    29.89F
6HR MIN TEMP:  67; 6HR MAX TEMP:  78;

BILOXI         SUNNY     76  66  71 SW16      29.89F
6HR MIN TEMP:  68; 6HR MAX TEMP:  77;

PASCAGOULA     SUNNY     78  62  57 SW9G22    29.91F
6HR MIN TEMP:  54; 6HR MAX TEMP:  79;

STENNIS ARPT*  PTSUNNY   79  66  65 SW14G23   29.88F

$$

COASTAL OBSERVATIONS
LAKE AND NEARSHORE STATIONS

STATION/POSITION TIME  TEMP    WIND        PRES    WAVE
                       AIR SEA DIR/SP/G            HT/PER
                 (UTC) (F)     (DEG/KT/KT) (MB)    (FT/S)

OFFSHORE STATIONS

STATION/POSITION TIME  TEMP    WIND        PRES    WAVE
                       AIR SEA DIR/SP/G            HT/PER
                 (UTC) (F)     (DEG/KT/KT) (MB)    (FT/S)
64 S DAUPHIN ISL 1750   77 78  210/ 16/ 21 1014.1    4/ 5

$$




USA.gov is the U.S. government's official web portal to all federal, state and local government web resources and services.